Regional Weather Roundup
Issued by NWS

Home | Current Version | Previous Version | Graphics & Text | Print | Product List | Glossary On
Versions: 1 2 3 4 5 6 7 8 9 10 11 12 13 14 15 16 17 18 19 20 21 22 23 24 25 26 27 28 29 30 31 32 33 34 35 36 37 38 39 40 41 42 43 44 45 46 47 48 49 50
000
ASUS43 KLOT 171208
RWRIL

ILLINOIS REGIONAL WEATHER ROUNDUP
NATIONAL WEATHER SERVICE CHICAGO/ROMEOVILLE IL
600 AM CST SUN DEC 17 2017

NOTE: "FAIR" INDICATES FEW OR NO CLOUDS BELOW 12,000 FEET WITH NO
SIGNIFICANT WEATHER AND/OR OBSTRUCTIONS TO VISIBILITY.

* THESE STATIONS ARE NOT UNDER NWS QUALITY CONTROL. THEY ALSO MAY NOT
  REPORT WEATHER SUCH AS PRECIPITATION OR FOG.

ILZ001-002-007-009-015-016-024-171300-
NORTHWEST ILLINOIS

CITY           SKY/WX    TMP DP  RH WIND       PRES   REMARKS
MOLINE         CLOUDY    31  27  85 E9        30.00F WCI  23
6HR MIN TEMP:  24; 6HR MAX TEMP:  31;

STERLING*      CLOUDY    31  30  96 E9        30.04S FOG     WCI  23
SAVANNA*       CLOUDY    32  32  99 NE8       30.03F FOG     WCI  25
$$

ILZ003-004-008-010-011-017-018-171300-
NORTH CENTRAL ILLINOIS

CITY           SKY/WX    TMP DP  RH WIND       PRES   REMARKS
ROCKFORD       CLOUDY    33  30  88 NE7       30.07F FOG     WCI  27
6HR MIN TEMP:  27; 6HR MAX TEMP:  34;

FREEPORT*      CLOUDY    32  31  97 NE12      30.06F FOG     WCI  23
ROCHELLE*      CLOUDY    32  31  96 NE10      30.04F FOG     WCI  24
DE KALB*       CLOUDY    32  31  98 NE9       30.04F FOG     WCI  24
PERU*          CLOUDY    31  28  90 E9        30.04F WCI  22
$$

ILZ005-006-012>014-019>023-171300-
NORTHEAST ILLINOIS

CITY           SKY/WX    TMP DP  RH WIND       PRES   REMARKS
CHICAGO-OHARE  CLOUDY    35  32  88 N7        30.06S FOG     WCI  29
6HR MIN TEMP:  29; 6HR MAX TEMP:  35;

CHICAGO-MIDWAY CLOUDY    37  35  92 N5        30.06S WCI  33
6HR MIN TEMP:  32; 6HR MAX TEMP:  37;

AURORA         CLOUDY    34  33  96 NE12      30.04F FOG     WCI  25
6HR MIN TEMP:  31; 6HR MAX TEMP:  34;

LANSING*       CLOUDY    29  27  91 CALM      30.06S
JOLIET*        CLOUDY    30  28  94 CALM      30.06S
WAUKEGAN       CLOUDY    35  32  88 NE7       30.08S FOG     WCI  29
6HR MIN TEMP:  34; 6HR MAX TEMP:  35;

DUPAGE AIRPORT CLOUDY    34  33  96 NE9       30.05S FOG     WCI  27
6HR MIN TEMP:  27; 6HR MAX TEMP:  34;

KANKAKEE*      CLOUDY    30  27  86 SE5       30.07S WCI  26
WHEELING       CLOUDY    36  34  92 NE7       30.09S WCI  30
6HR MIN TEMP:  29; 6HR MAX TEMP:  37;

MORRIS*        CLOUDY    30  28  90 NE3       30.04S
ROMEOVILLE*    CLOUDY    30  30  98 SE5       30.05S FOG     WCI  25
NORTHERLY ISL    N/A     36  34  92 MISG        N/A
$$

LMZ740>746-171300-
SOUTHERN LAKE MICHIGAN

STATION/POSITION SKY/WX   TEMP    WIND        PRES    VSBY  WAVE
                          AIR SEA DIR/SP/G                  HT/PER
                          (F)     (DEG/KT/KT) (MB)    (MI)  (FT/S)
HARRISON CRIB              39      30/  9/ 10   N/A
BURNHAM HARBOR             36     360/  6/  8   N/A
CALUMET HARBOR             33     200/  1/  3 1017.4S
BURNS HARBOR               35     170/  1/  3 1018.6S
MICHIGAN CITY              32     130/  8/  9   N/A
$$

ILZ025>027-034>036-040-047-049-050-058-095>099-171300-
WEST-CENTRAL ILLINOIS

CITY           SKY/WX    TMP DP  RH WIND       PRES   REMARKS
QUINCY         CLOUDY    45  28  51 S9        30.00S
GALESBURG*     CLOUDY    34  29  80 SE3       30.01R
MACOMB*        CLOUDY    40  28  63 S8        30.03R
JACKSONVILLE*  MOCLDY    43  28  56 S8        30.04S
PITTSFIELD*    CLOUDY    45  30  56 S6        30.04R
$$

ILZ028>032-037-038-041>044-048-051>054-059>061-171300-
CENTRAL ILLINOIS

CITY           SKY/WX    TMP DP  RH WIND       PRES   REMARKS
PONTIAC        CLOUDY    32  29  90 SE3       30.04F
BLOOMINGTON    CLOUDY    39  29  67 SW9       30.04F WCI  33
DECATUR        CLOUDY    41  31  67 S13         N/A
PEORIA         CLOUDY    37  30  75 S7        30.04R WCI  32
6HR MIN TEMP:  35; 6HR MAX TEMP:  38;

LACON*         CLOUDY    28  25  89 CALM      30.03S
LINCOLN*       CLOUDY    38  32  77 SE5       30.06R WCI  35
SPRINGFIELD    CLOUDY    44  30  57 S9        30.06F
6HR MIN TEMP:  43; 6HR MAX TEMP:  44;

TAYLORVILLE    CLOUDY    39  31  73 S7        30.07S WCI  34
6HR MIN TEMP:  38; 6HR MAX TEMP:  40;

$$

ILZ033-039-045-046-055>057-062-063-171300-
EAST-CENTRAL ILLINOIS

CITY           SKY/WX    TMP DP  RH WIND       PRES   REMARKS
CHAMPAIGN      CLOUDY    38  31  76 S9        30.08R WCI  31
DANVILLE*      CLOUDY    37  30  75 S7        30.08R WCI  32
RANTOUL*       CLOUDY    40  32  74 S6        30.07R
MATTOON        CLOUDY    39  32  76 S9        30.09R WCI  33
PARIS*         CLOUDY    39  32  75 S8        30.12R WCI  34
$$

ILZ079-100>102-171300-
SOUTHWEST ILLINOIS

CITY           SKY/WX    TMP DP  RH WIND       PRES   REMARKS
ALTON          CLOUDY    40  33  76 E3        30.07S
BELLEVILLE     CLOUDY    42  32  66 SW6       30.07F
CAHOKIA*       CLOUDY    42  30  62 S6        30.07S
SPARTA*        CLOUDY    43  34  69 S6        30.09F
$$

ILZ064>066-069>071-074>076-080>082-084>086-088>090-092>094-171300-
SOUTH-CENTRAL ILLINOIS

CITY           SKY/WX    TMP DP  RH WIND       PRES   REMARKS
CARBONDALE     LGT RAIN  43  36  76 S9        30.13S
6HR MIN TEMP:  43; 6HR MAX TEMP:  44; 6HR PCP: TRACE;

CAIRO*         LGT RAIN  41  38  90 S3        30.15F
EFFINGHAM*     CLOUDY    41  33  72 SE5       30.12S
MARION         LGT RAIN  43  35  72 S7        30.14F
MT. VERNON     CLOUDY    42  33  70 S6        30.12S
CENTRALIA*     CLOUDY    43  34  71 S5        30.09F
SALEM*         CLOUDY    44  32  63 S7        30.10F
METROPOLIS*    LGT RAIN  43  37  81 CALM      30.17R
$$

ILZ067-068-072-073-078-083-087-091-171300-
SOUTHEAST ILLINOIS

CITY           SKY/WX    TMP DP  RH WIND       PRES   REMARKS
LAWRENCEVILLE  CLOUDY    40  32  73 S6        30.16R
FLORA*         CLOUDY    41  33  72 S5        30.12F
FAIRFIELD*     CLOUDY    41  32  72 S3        30.13S
HARRISBURG*    DRIZZLE   43  33  69 S6        30.16S
ROBINSON*      CLOUDY    39  31  74 S8        30.15R WCI  33
CARMI*         CLOUDY    39  34  80 S5        30.15S
$$

ABBREVIATIONS USED IN REMARKS
   TC - TEMPERATURE IN CELSIUS
  WCI - WIND CHILL INDEX
   HX - HEAT INDEX
  VSB - VISIBILITY
$$





USA.gov is the U.S. government's official web portal to all federal, state and local government web resources and services.